Temperature
16 15 15 15 15 15 15 15 15 15 16 16 16 16 16 16 16 16 16 16 16 17 17 17 17 17 17 17 17 17 17 17 17 17 17 17 18 18 18 18 18 18 18
15 15 15 15 15 15 15 15 15 15 15 16 16 16 16 16 16 16 16 16 16 16 17 17 17 17 17 17 17 17 17 17 17 17 17 17 17 18 18 18 18 18 18
15 15 15 15 15 15 15 15 15 15 15 15 16 16 16 16 16 16 16 16 16 16 16 17 17 17 17 17 17 17 17 17 17 17 17 17 17 17 17 17 17 18 18
15 15 15 15 15 15 15 15 15 15 15 15 15 15 16 16 16 16 16 16 16 16 16 16 17 17 17 17 17 17 17 17 17 17 17 17 17 17 17 17 17 17 17
15 15 15 14 14 14 14 14 14 15 15 15 15 15 16 16 16 16 16 16 16 16 16 16 16 17 17 17 17 17 17 17 17 17 17 17 17 17 17 17 17 17 17
15 15 14 14 14 14 14 14 14 14 14 15 15 15 15 16 16 16 16 16 16 16 16 16 16 16 16 17 17 17 17 17 17 17 17 17 17 17 17 17 17 17 17
15 15 14 14 14 14 14 14 14 14 14 14 15 15 15 15 16 16 16 16 16 16 16 16 16 16 16 16 16 16 17 17 17 17 17 17 17 17 17 17 17 17 17
15 15 14 14 14 14 14 14 14 14 14 14 14 14 15 15 15 15 15 16 16 16 16 16 16 16 16 16 16 16 16 16 17 17 17 17 17 17 17 17 17 17 17
15 15 14 14 14 14 14 14 14 14 14 14 14 14 14 14 15 15 15 15 15 16 16 16 16 16 16 16 16 16 16 16 16 16 17 17 17 17 17 17 17 17 17
15 15 14 14 14 14 14 14 14 13 13 14 14 14 14 14 14 14 15 15 15 15 15 16 16 16 16 16 16 16 16 16 16 16 16 16 17 17 17 17 17 17 17
15 15 15 14 14 14 14 14 14 14 13 13 13 14 14 14 14 14 14 15 15 15 15 15 16 16 16 16 16 16 16 16 16 16 16 16 16 16 17 17 17 17 17
15 15 15 14 14 14 14 14 14 14 13 13 13 13 14 14 14 14 14 14 14 15 15 15 15 15 16 16 16 16 16 16 16 16 16 16 16 16 16 16 16 17 17
15 15 15 14 14 14 14 14 14 14 14 14 14 14 14 14 14 14 14 14 14 14 15 15 15 15 15 15 16 16 16 16 16 16 16 16 16 16 16 16 16 16 16
15 15 14 14 14 14 14 14 14 14 14 14 14 14 14 14 14 14 14 14 14 14 14 15 15 15 15 15 15 15 15 15 16 16 16 16 16 16 16 16 16 16 16
15 14 14 14 14 14 14 14 14 14 14 14 14 14 14 14 14 14 14 14 14 14 14 15 15 15 15 15 15 15 15 15 15 15 15 16 16 16 16 16 16 16 16
14 14 14 14 14 14 14 14 14 14 14 14 14 14 14 14 14 14 14 14 14 14 14 14 15 15 15 15 15 15 15 15 15 15 15 15 15 15 16 16 16 16 16
14 14 14 14 14 14 14 14 14 14 14 14 14 14 14 14 14 14 14 14 14 14 14 14 14 14 14 15 15 15 15 15 15 15 15 15 15 15 15 15 15 15 16
14 14 14 13 13 13 13 13 13 14 14 14 14 14 14 14 14 14 14 14 14 14 14 14 14 14 14 14 14 14 14 14 14 14 14 15 15 15 15 15 15 15 15
13 13 13 13 13 13 13 13 13 13 13 13 13 13 13 13 14 14 14 14 14 14 14 14 14 14 14 14 14 14 14 14 14 14 14 14 14 15 15 15 15 15 15
13 13 13 13 13 13 13 13 13 13 13 13 13 13 13 13 13 13 14 14 14 14 14 14 14 14 14 14 14 14 14 14 14 14 14 14 14 14 14 14 15 15 15
12 12 12 12 12 12 12 12 12 12 12 13 13 13 13 13 13 13 13 13 13 13 13 13 14 14 14 13 13 14 14 14 14 13 14 14 14 14 14 14 14 14 14
12 12 12 12 12 12 12 12 12 12 12 12 12 13 13 13 13 13 13 13 13 13 13 13 13 13 14 13 13 13 13 13 13 13 13 13 13 13 14 14 14 14 14
11 11 11 11 11 11 11 11 11 11 11 12 12 12 12 12 12 12 13 13 13 13 13 13 13 13 13 14 13 13 13 13 13 13 13 13 13 13 13 13 13 13 13
11 11 11 11 11 11 11 11 11 11 11 11 11 12 12 12 12 12 12 12 12 12 13 13 13 13 13 13 13 13 13 13 13 13 13 13 13 13 13 13 13 13 12
10 10 10 10 10 10 10 10 10 11 11 11 11 11 11 11 11 11 11 12 12 12 12 12 13 13 13 13 13 13 13 13 13 13 13 12 12 12 12 12 12 12 12
10 10 10 10 10 10 10 10 10 10 10 10 11 11 11 11 11 11 11 11 11 11 12 12 12 12 13 13 13 13 13 13 12 12 12 12 12 12 12 12 12 12 12
Wind_Speed
2 2 2 3 4 4 3 3 3 4 4 4 3 2 2 2 2 3 4 7 8 7 7 6 6 5 5 4 5 7 8 9 9 9 9 9 11 14 15 15 16 16 16
3 3 3 3 4 4 3 2 2 3 3 3 4 3 2 2 2 3 4 5 7 7 7 6 6 6 5 5 5 6 8 10 10 10 10 10 13 15 15 15 16 16 16
5 3 3 3 4 6 5 4 4 3 4 4 4 4 3 2 1 2 4 4 5 7 8 7 7 6 6 6 6 6 8 11 12 11 11 11 13 14 15 15 15 15 16
6 4 3 3 4 5 4 3 3 3 4 4 4 4 3 2 2 2 3 4 4 5 7 8 8 7 7 7 7 7 9 12 12 12 11 12 13 14 14 14 14 14 14
5 4 2 3 4 3 3 4 3 2 3 5 4 3 3 3 3 2 2 3 5 6 6 7 9 8 7 8 8 8 10 12 12 12 12 12 12 13 13 14 14 14 13
3 3 2 3 3 3 4 3 3 3 2 3 4 4 4 3 2 2 2 1 3 5 6 6 6 7 8 8 9 9 10 12 13 13 13 12 13 13 13 13 14 14 13
1 2 1 2 3 2 3 3 2 3 3 3 3 4 4 4 3 2 2 1 2 3 4 5 5 5 5 8 9 10 10 11 12 13 13 13 13 13 13 13 14 14 13
1 1 0 1 2 2 3 3 2 2 3 2 2 2 4 5 4 4 3 2 2 1 2 3 4 5 5 5 7 10 11 12 13 14 14 14 14 14 13 13 13 14 13
3 2 2 1 1 1 2 3 2 1 2 2 1 1 1 2 4 4 3 3 2 1 1 1 3 4 5 6 6 8 10 12 13 14 15 15 14 14 14 13 13 13 13
3 3 3 2 2 2 2 3 1 1 0 2 2 1 2 3 1 3 4 3 3 1 1 1 1 3 5 6 7 8 9 11 13 14 14 15 15 14 14 14 14 14 14
4 4 3 2 2 2 3 3 2 1 1 1 1 1 1 1 1 1 3 4 3 2 2 2 2 2 4 6 6 8 10 10 11 13 14 14 15 14 14 14 14 14 14
4 4 3 2 3 3 3 3 3 3 2 2 2 2 2 1 2 2 2 3 3 3 2 2 2 2 3 5 7 8 10 11 12 13 13 13 13 13 14 14 15 15 15
3 4 3 3 3 4 4 3 3 3 3 3 3 3 3 3 3 3 2 2 2 2 2 2 2 2 3 5 6 9 10 11 12 12 12 13 14 13 13 13 14 15 15
3 4 4 4 5 4 4 3 3 3 3 3 4 4 3 4 3 3 3 2 1 2 2 3 2 2 3 5 7 9 8 10 12 12 12 12 13 13 13 13 13 13 13
3 4 4 4 5 5 4 4 3 4 3 3 4 4 3 3 3 3 4 4 3 2 2 3 2 2 2 4 6 7 7 9 10 12 12 12 12 12 12 12 11 11 11
3 4 5 4 5 5 4 3 4 4 4 4 3 4 4 3 3 3 3 3 4 4 3 3 3 2 2 3 6 6 7 8 10 10 11 12 12 12 12 12 11 10 10
4 4 5 5 5 5 4 4 4 4 4 4 4 4 5 4 3 3 3 3 3 4 4 3 2 2 2 2 2 4 5 5 6 10 11 12 12 12 12 12 11 10 10
5 5 5 5 5 5 5 4 5 4 4 4 4 4 5 4 4 3 3 4 4 4 4 4 2 2 3 3 3 4 3 5 5 8 11 11 11 11 11 11 11 11 10
5 5 5 5 5 6 5 4 4 5 4 4 4 4 5 4 4 3 4 4 3 4 4 4 3 2 2 2 2 2 3 2 4 6 8 9 10 11 11 10 10 10 10
5 6 5 5 5 5 5 5 5 5 5 5 4 4 4 4 5 5 4 5 4 4 3 3 3 2 2 2 2 3 3 2 3 3 4 6 7 9 9 10 10 10 10
6 5 5 6 6 5 5 6 5 5 5 5 5 4 5 6 7 5 4 4 4 4 4 4 4 3 3 3 3 3 4 3 2 2 3 3 3 3 4 6 8 9 9
6 6 6 6 6 7 10 10 6 4 5 5 5 5 5 5 6 7 7 7 6 6 5 5 4 5 5 5 4 4 4 4 3 3 4 3 3 3 3 4 7 8 9
6 6 6 6 6 8 12 12 9 4 4 5 5 5 5 5 5 4 6 6 7 9 9 7 7 8 7 7 6 6 5 5 5 4 4 3 3 3 2 4 7 8 9
5 5 6 6 6 9 14 13 11 5 4 6 5 5 4 4 4 3 3 4 5 6 7 7 7 8 8 7 8 8 7 4 2 2 3 3 3 2 2 2 6 8 9
6 5 5 6 6 9 13 14 11 4 4 6 6 5 5 4 7 6 3 4 5 6 6 8 9 10 10 11 9 6 5 5 4 3 3 4 3 2 1 1 2 6 8
5 6 6 6 6 7 12 14 12 3 4 5 5 5 7 7 8 7 4 4 5 6 5 6 6 7 7 8 11 10 9 7 4 4 4 5 4 4 2 1 1 2 4
Wind_Direction
30 18 4 11 4 356 345 332 333 337 339 335 335 329 311 286 241 212 224 226 216 210 207 203 199 196 187 173 168 164 160 154 150 148 144 141 145 150 147 146 146 146 146
49 35 17 10 3 354 346 346 342 338 331 337 344 339 322 307 260 233 224 228 224 220 215 216 212 205 195 188 183 177 171 167 159 152 147 140 140 143 144 144 147 148 148
56 51 29 9 348 354 360 3 354 357 355 352 343 332 328 316 298 265 241 233 236 235 225 222 219 213 204 199 193 188 178 170 163 156 151 147 144 144 145 144 147 146 146
58 53 31 360 350 3 7 360 1 357 350 345 333 322 326 321 304 264 252 243 237 240 234 226 223 218 210 205 196 185 170 165 161 158 157 154 150 149 149 146 146 147 147
54 55 34 357 1 7 4 357 6 355 338 334 323 319 325 317 299 287 266 243 233 233 232 228 224 222 216 209 200 188 178 169 164 163 162 160 158 156 154 153 152 152 152
48 49 28 3 8 8 356 355 347 344 326 322 328 335 324 316 314 304 284 244 232 234 227 223 224 227 221 212 205 195 186 177 171 170 169 170 167 164 162 161 160 160 159
32 51 17 358 6 360 333 337 341 346 337 342 3 343 334 339 339 318 308 280 250 232 215 214 215 217 220 217 208 202 192 185 181 180 178 178 176 174 171 170 168 168 169
288 273 316 327 347 348 341 342 353 352 335 5 39 15 348 342 342 341 339 319 281 247 207 205 199 203 205 205 207 204 201 196 192 190 188 187 185 181 178 177 177 176 176
279 274 266 275 304 303 301 306 314 5 327 333 48 124 85 293 314 326 338 341 330 317 237 175 195 202 201 200 204 204 205 203 200 197 193 191 189 187 186 185 185 184 182
290 277 268 267 281 279 287 294 295 238 205 316 323 277 207 204 245 319 326 334 334 328 271 203 208 209 207 197 200 199 202 207 208 204 198 195 194 193 191 191 189 188 187
306 292 276 273 281 272 271 284 299 280 218 227 259 278 291 283 218 207 301 322 333 318 281 244 226 211 203 199 200 202 204 208 213 209 202 199 199 196 197 196 195 193 194
313 303 286 276 276 269 266 265 265 267 255 245 243 221 201 216 232 203 245 286 301 298 293 273 243 230 204 198 205 202 205 204 208 206 201 200 197 199 203 202 201 201 202
309 303 295 281 276 272 271 265 257 266 258 254 250 239 219 219 209 194 206 255 284 296 308 300 259 238 215 201 205 202 205 205 204 204 201 200 200 201 205 208 205 206 206
281 293 292 293 291 288 284 272 259 259 254 255 259 250 242 238 212 197 193 189 274 312 309 285 294 248 226 209 209 198 203 208 206 203 201 200 202 203 204 208 211 208 208
304 302 305 311 306 302 294 281 267 265 261 257 260 258 250 250 233 216 201 187 178 223 271 271 274 266 233 217 209 197 201 208 208 204 200 199 200 200 199 202 206 206 208
315 319 320 318 317 314 311 295 280 276 274 272 260 259 259 253 251 237 215 203 187 187 227 253 250 264 247 220 205 197 202 204 205 200 198 199 199 199 201 202 202 202 201
322 317 316 318 315 314 312 316 298 290 283 285 284 268 265 255 246 248 229 206 200 185 215 258 253 259 230 209 183 190 197 195 200 202 201 200 199 198 198 198 197 199 198
332 324 324 323 316 314 312 311 307 296 285 284 284 282 279 271 253 245 231 225 213 199 199 234 250 237 228 211 192 190 190 192 195 203 201 200 198 195 194 193 191 190 193
339 338 340 333 323 317 313 305 301 289 275 274 277 276 277 269 262 255 240 236 231 219 200 208 232 225 233 211 187 187 187 185 192 197 195 196 195 193 192 191 189 187 189
340 337 337 333 327 320 317 316 302 303 293 284 278 273 272 258 252 254 248 238 231 222 207 206 219 223 223 217 181 184 190 196 199 184 179 178 182 185 189 190 190 189 190
340 330 331 332 329 324 332 332 320 316 307 296 295 289 278 271 261 252 252 236 221 221 213 212 216 216 212 193 200 191 191 184 205 185 163 165 156 163 176 185 187 189 190
332 332 330 327 329 333 333 332 332 319 313 304 299 301 299 289 289 276 264 249 225 217 217 217 222 218 219 207 199 189 178 174 212 200 166 179 159 174 173 176 184 184 185
330 327 322 325 320 315 328 332 326 324 308 298 288 289 301 309 308 301 296 291 267 244 222 213 220 223 217 207 191 192 190 185 199 184 156 177 165 183 181 180 182 181 183
325 316 314 317 316 322 333 335 328 325 316 303 287 275 271 280 294 294 303 308 297 284 256 235 227 230 225 211 198 198 193 180 150 159 154 172 174 181 168 160 183 184 185
323 314 313 316 317 318 332 336 335 319 310 305 302 297 276 268 282 286 277 285 295 298 291 266 248 240 230 215 194 172 168 166 186 196 175 160 161 148 151 194 190 188 188
315 315 318 315 311 311 327 337 339 317 303 304 307 303 293 287 290 291 266 252 267 281 288 294 283 262 244 223 200 191 187 185 179 195 185 162 161 150 161 199 159 162 173
Height
1528 1527 1526 1525 1524 1523 1522 1521 1520 1519 1518 1518 1517 1517 1517 1516 1516 1517 1517 1517 1518 1518 1518 1518 1518 1518 1518 1518 1518 1518 1518 1518 1519 1520 1520 1517 1515 1516 1523 1529 1534 1537 1540
1528 1527 1526 1525 1523 1522 1521 1520 1519 1518 1517 1517 1516 1516 1516 1515 1515 1516 1516 1516 1517 1517 1517 1517 1517 1518 1518 1517 1517 1517 1516 1517 1519 1520 1521 1520 1517 1519 1525 1530 1535 1538 1541
1528 1527 1525 1524 1523 1521 1520 1519 1518 1517 1516 1515 1515 1514 1514 1514 1514 1514 1515 1515 1515 1516 1516 1516 1516 1517 1517 1517 1516 1515 1513 1514 1518 1521 1523 1523 1524 1525 1528 1533 1536 1540 1542
1528 1527 1525 1524 1522 1521 1519 1518 1517 1516 1515 1514 1513 1513 1513 1513 1513 1513 1513 1514 1514 1514 1515 1515 1515 1516 1516 1516 1516 1514 1513 1515 1518 1521 1524 1526 1527 1529 1532 1535 1538 1541 1543
1528 1526 1525 1523 1522 1520 1519 1517 1516 1515 1514 1513 1512 1512 1511 1511 1511 1512 1512 1512 1512 1513 1513 1514 1514 1515 1515 1515 1516 1516 1516 1517 1520 1522 1525 1527 1529 1531 1534 1536 1539 1541 1544
1528 1526 1524 1523 1521 1520 1518 1517 1515 1514 1513 1512 1511 1510 1510 1510 1510 1510 1510 1510 1511 1511 1512 1512 1513 1514 1514 1515 1516 1517 1517 1519 1521 1523 1525 1528 1530 1533 1535 1537 1540 1542 1544
1528 1526 1524 1523 1521 1520 1518 1516 1515 1513 1512 1511 1510 1509 1509 1509 1508 1508 1509 1509 1509 1510 1510 1511 1512 1513 1513 1514 1515 1516 1518 1519 1521 1523 1525 1528 1530 1533 1535 1538 1540 1542 1544
1528 1526 1524 1523 1521 1519 1518 1516 1515 1513 1512 1511 1510 1509 1508 1509 1507 1507 1507 1507 1507 1508 1508 1509 1510 1511 1512 1514 1515 1516 1517 1519 1521 1523 1525 1527 1530 1533 1535 1537 1539 1542 1544
1528 1526 1524 1523 1521 1519 1517 1516 1514 1513 1512 1511 1510 1510 1509 1508 1507 1507 1506 1506 1506 1506 1507 1508 1508 1510 1511 1513 1514 1515 1517 1518 1520 1522 1524 1527 1529 1532 1534 1536 1539 1541 1543
1527 1526 1524 1522 1521 1519 1517 1516 1514 1513 1512 1511 1510 1510 1510 1509 1508 1506 1506 1505 1505 1505 1506 1506 1507 1509 1510 1512 1513 1514 1516 1517 1519 1521 1523 1525 1528 1530 1533 1535 1538 1540 1542
1526 1525 1523 1521 1520 1518 1517 1515 1514 1512 1511 1510 1510 1509 1508 1508 1508 1507 1505 1505 1504 1504 1505 1505 1506 1507 1509 1510 1512 1513 1514 1516 1518 1519 1522 1524 1526 1529 1531 1534 1536 1538 1541
1525 1524 1522 1520 1519 1517 1516 1514 1513 1512 1511 1509 1509 1508 1507 1507 1507 1506 1505 1504 1503 1504 1504 1504 1505 1506 1507 1508 1510 1511 1513 1514 1516 1518 1520 1522 1524 1526 1529 1532 1534 1536 1539
1524 1522 1521 1519 1518 1516 1515 1513 1512 1510 1509 1508 1507 1507 1506 1506 1506 1505 1504 1503 1503 1502 1502 1502 1503 1504 1505 1506 1508 1509 1511 1513 1515 1516 1518 1520 1522 1524 1527 1529 1532 1534 1536
1522 1521 1519 1518 1516 1515 1513 1512 1510 1509 1508 1507 1506 1505 1504 1504 1504 1503 1503 1503 1502 1502 1501 1501 1501 1502 1503 1505 1506 1507 1509 1511 1512 1514 1516 1518 1520 1522 1524 1527 1529 1532 1534
1521 1519 1518 1516 1514 1513 1511 1510 1508 1507 1506 1505 1504 1503 1502 1502 1501 1501 1501 1501 1502 1500 1500 1500 1500 1500 1501 1503 1504 1505 1507 1508 1510 1512 1514 1516 1518 1520 1522 1524 1526 1528 1530
1519 1518 1516 1514 1512 1511 1509 1507 1506 1505 1504 1503 1502 1501 1500 1500 1499 1499 1499 1499 1499 1499 1499 1498 1499 1499 1499 1500 1502 1503 1505 1506 1507 1509 1511 1513 1515 1517 1519 1521 1523 1525 1527
1517 1516 1514 1512 1510 1508 1507 1505 1504 1502 1501 1500 1500 1499 1498 1497 1497 1496 1496 1496 1496 1497 1496 1496 1497 1497 1497 1498 1499 1501 1502 1503 1505 1506 1508 1510 1512 1514 1516 1518 1520 1522 1524
1515 1513 1511 1510 1508 1506 1504 1503 1501 1500 1499 1498 1497 1496 1495 1494 1494 1494 1493 1493 1493 1494 1494 1493 1494 1494 1495 1496 1497 1498 1499 1500 1502 1503 1505 1507 1509 1511 1512 1514 1516 1518 1520
1513 1511 1509 1507 1505 1503 1501 1500 1498 1497 1496 1495 1494 1493 1492 1491 1491 1491 1490 1490 1490 1490 1491 1491 1490 1491 1492 1493 1494 1495 1496 1497 1499 1501 1502 1504 1506 1508 1509 1511 1513 1515 1517
1511 1508 1506 1505 1503 1501 1499 1496 1495 1493 1492 1492 1491 1490 1489 1488 1488 1487 1487 1487 1487 1487 1487 1487 1487 1488 1489 1490 1490 1491 1492 1494 1496 1497 1499 1501 1502 1504 1506 1508 1510 1511 1513
1508 1506 1504 1502 1500 1498 1496 1494 1492 1490 1488 1488 1487 1486 1486 1485 1484 1484 1484 1483 1483 1483 1483 1483 1484 1484 1485 1486 1487 1488 1489 1491 1492 1494 1495 1497 1499 1501 1502 1504 1506 1508 1509
1506 1503 1501 1499 1497 1495 1493 1491 1488 1487 1485 1484 1483 1483 1482 1481 1481 1480 1480 1479 1479 1479 1479 1479 1479 1480 1480 1481 1483 1484 1485 1487 1488 1491 1492 1494 1495 1497 1499 1501 1502 1504 1506
1503 1501 1498 1496 1494 1491 1489 1487 1485 1483 1482 1480 1479 1479 1478 1477 1477 1476 1475 1475 1474 1474 1475 1475 1475 1475 1476 1477 1479 1480 1481 1483 1484 1486 1489 1490 1492 1493 1496 1497 1499 1500 1502
1500 1497 1495 1493 1490 1488 1486 1484 1482 1479 1478 1477 1476 1475 1474 1473 1473 1472 1470 1470 1469 1469 1470 1470 1470 1471 1472 1473 1475 1476 1477 1479 1481 1483 1485 1486 1488 1490 1492 1494 1495 1497 1498
1497 1495 1492 1490 1487 1485 1483 1480 1478 1476 1474 1473 1472 1471 1470 1469 1468 1468 1467 1465 1464 1464 1464 1464 1465 1466 1467 1468 1470 1471 1473 1475 1476 1478 1480 1482 1484 1486 1488 1490 1492 1493 1495
1494 1492 1489 1487 1484 1481 1479 1476 1474 1472 1470 1468 1467 1466 1466 1465 1464 1463 1462 1461 1460 1459 1459 1458 1459 1460 1461 1462 1464 1465 1467 1469 1471 1473 1475 1478 1479 1482 1484 1486 1488 1489 1491